Date String (YYYY-MM-DD hh:mm:ss) UTC,Instrument flags,Ambient pressure (hPa),Sample flow (lpm),Bypass flow (lpm),Sample temperature (°C),Ambient temperature (°C),ASC tube jacket temperature (°C),LED temperature (°C),Box temperature (°C),Sample RH (%),Span deviation,Mass concentration (μg/m³),Mass concentration (μg/m³),Mass concentration (μg/m³)
DateTimeUTC,F1_M11,P_M11,Q1_M11,Q2_M11,T1_M11,T2_M11,T3_M11,T4_M11,T5_M11,U1_M11,ZSPAN_M11,X0_M11,X2_M11,X1_M11
2021-09-15 05:00:00,,0827.7,5.00,0.00,29.7,29.0,00.0,38.9,31.4,28.5,0001.1,0015.86,0008.02,0006.92
2021-09-15 05:01:00,,0827.7,5.00,0.00,29.7,29.0,00.0,38.9,31.4,28.6,0001.0,0016.14,0008.04,0006.91
2021-09-15 05:02:00,,0827.6,4.99,0.00,29.7,29.0,00.0,38.9,31.4,28.6,0000.8,0016.01,0007.99,0006.89
2021-09-15 05:03:00,,0827.5,5.01,0.00,29.7,29.0,00.0,38.9,31.4,28.5,0000.7,0016.14,0007.99,0006.88
2021-09-15 05:04:00,,0827.6,5.00,0.00,29.7,29.0,00.0,38.9,31.4,28.5,0000.6,0015.77,0007.98,0006.86
2021-09-15 05:05:00,,0827.6,4.99,0.00,29.7,29.0,00.0,38.9,31.4,28.6,0000.8,0015.96,0007.96,0006.84
2021-09-15 05:06:00,,0827.5,5.00,0.00,29.7,29.0,00.0,38.9,31.4,28.6,0000.9,0016.11,0007.93,0006.81
2021-09-15 05:07:00,,0827.6,5.00,0.00,29.7,27.9,00.0,38.9,31.2,28.6,0001.3,0016.05,0007.88,0006.79
2021-09-15 05:08:00,,0827.5,4.99,0.00,29.6,26.3,00.0,38.8,30.8,28.8,0001.6,0016.01,0007.80,0006.77
2021-09-15 05:09:00,,0827.5,5.00,0.00,29.4,25.9,00.0,38.8,30.7,28.9,0001.7,0015.41,0007.74,0006.75
2021-09-15 05:10:00,,0827.6,5.01,0.00,29.4,26.3,00.0,38.7,30.8,29.1,0001.4,0014.95,0007.69,0006.73
2021-09-15 05:11:00,,0827.6,5.00,0.00,29.3,26.8,00.0,38.7,30.8,29.2,0001.1,0014.79,0007.68,0006.70
2021-09-15 05:12:00,,0827.5,5.00,0.00,29.3,27.1,00.0,38.6,30.9,29.3,0001.0,0014.36,0007.66,0006.70
2021-09-15 05:13:00,,0827.5,5.01,0.00,29.3,27.4,00.0,38.6,30.9,29.3,0000.9,0014.62,0007.66,0006.70
2021-09-15 05:14:00,,0827.5,5.00,0.00,29.3,27.6,00.0,38.6,30.9,29.3,0000.8,0015.25,0007.66,0006.69
2021-09-15 05:15:00,,0827.5,5.00,0.00,29.2,27.8,00.0,38.6,30.9,29.3,0000.4,0015.03,0007.68,0006.69
2021-09-15 05:16:00,,0827.5,5.00,0.00,29.2,27.9,00.0,38.5,30.9,29.3,-000.1,0014.51,0007.72,0006.70
2021-09-15 05:17:00,,0827.5,5.01,0.00,29.2,28.0,00.0,38.5,30.9,29.3,0000.1,0014.18,0007.71,0006.71
2021-09-15 05:18:00,,0827.5,4.99,0.00,29.2,28.1,00.0,38.5,30.9,29.3,-000.1,0014.48,0007.75,0006.71
2021-09-15 05:19:00,,0827.5,4.99,0.00,29.2,28.2,00.0,38.5,30.9,29.3,-000.2,0014.48,0007.80,0006.73
2021-09-15 05:20:00,,0827.5,5.01,0.00,29.2,28.3,00.0,38.5,30.9,29.4,0000.0,0014.76,0007.79,0006.71
2021-09-15 05:21:00,,0827.5,5.00,0.00,29.2,28.3,00.0,38.5,30.9,29.4,0000.0,0015.41,0007.82,0006.69
2021-09-15 05:22:00,,0827.5,5.00,0.00,29.3,28.3,00.0,38.5,31.0,29.3,-000.1,0015.34,0007.82,0006.68
2021-09-15 05:23:00,,0827.5,5.01,0.00,29.3,28.4,00.0,38.5,31.0,29.3,0000.0,0015.38,0007.79,0006.66
2021-09-15 05:24:00,,0827.5,4.99,0.00,29.3,28.4,00.0,38.5,31.0,29.3,0000.1,0015.42,0007.80,0006.65
2021-09-15 05:25:00,,0827.5,5.01,0.00,29.3,28.4,00.0,38.5,31.0,29.2,0000.7,0014.79,0007.80,0006.67
2021-09-15 05:26:00,,0827.6,5.01,0.00,29.3,28.4,00.0,38.5,31.0,29.2,0000.9,0014.18,0007.78,0006.68
2021-09-15 05:27:00,,0827.5,5.00,0.00,29.3,28.5,00.0,38.5,31.0,29.1,0001.8,0014.20,0007.79,0006.70
2021-09-15 05:28:00,,0827.5,5.00,0.00,29.3,28.5,00.0,38.5,31.0,29.2,0001.8,0014.90,0007.80,0006.72
2021-09-15 05:29:00,,0827.5,5.01,0.00,29.3,28.5,00.0,38.5,31.0,29.2,0002.0,0014.71,0007.80,0006.73
2021-09-15 05:30:00,,0827.4,5.01,0.00,29.3,28.5,00.0,38.5,31.0,29.0,0001.6,0015.37,0007.84,0006.74
2021-09-15 05:31:00,,0827.5,4.99,0.00,29.3,28.5,00.0,38.5,31.0,28.9,0001.3,0015.29,0007.93,0006.79
2021-09-15 05:32:00,,0827.4,5.00,0.00,29.3,28.5,00.0,38.5,31.0,28.8,0000.7,0014.85,0007.95,0006.82
2021-09-15 05:33:00,,0827.4,5.00,0.00,29.3,28.5,00.0,38.5,31.0,28.8,0001.0,0015.10,0008.01,0006.86
2021-09-15 05:34:00,,0827.4,5.01,0.00,29.3,28.5,00.0,38.5,31.1,28.8,0001.0,0016.36,0008.09,0006.90
2021-09-15 05:35:00,,0827.4,4.99,0.00,29.3,28.5,00.0,38.5,31.0,28.7,0000.7,0017.60,0008.17,0006.93
2021-09-15 05:36:00,,0827.4,5.01,0.00,29.3,28.6,00.0,38.5,31.0,28.7,0000.7,0017.31,0008.17,0006.96
2021-09-15 05:37:00,,0827.4,5.00,0.00,29.3,28.6,00.0,38.5,31.0,28.6,0000.8,0017.37,0008.24,0006.99
2021-09-15 05:38:00,,0827.4,4.99,0.00,29.3,28.6,00.0,38.5,31.1,28.6,0000.8,0017.25,0008.25,0007.02
2021-09-15 05:39:00,,0827.4,5.02,0.00,29.3,28.6,00.0,38.5,31.1,28.5,0000.7,0016.78,0008.26,0007.04
2021-09-15 05:40:00,,0827.4,5.00,0.00,29.3,28.6,00.0,38.5,31.1,28.5,0000.8,0016.93,0008.31,0007.08
2021-09-15 05:41:00,,0827.4,5.01,0.00,29.4,28.6,00.0,38.5,31.1,28.4,0000.8,0016.30,0008.29,0007.10
2021-09-15 05:42:00,,0827.4,5.00,0.00,29.4,28.6,00.0,38.5,31.1,28.3,0000.7,0016.81,0008.28,0007.15
2021-09-15 05:43:00,,0827.3,5.02,0.00,29.4,28.6,00.0,38.5,31.1,28.4,0000.9,0017.05,0008.32,0007.18
2021-09-15 05:44:00,,0827.3,4.99,0.00,29.4,28.6,00.0,38.5,31.1,28.4,0001.1,0016.92,0008.32,0007.22
2021-09-15 05:45:00,,0827.2,4.99,0.00,29.4,28.6,00.0,38.5,31.1,28.4,0000.9,0016.03,0008.35,0007.23
2021-09-15 05:46:00,,0827.2,5.01,0.00,29.4,28.6,00.0,38.5,31.1,28.5,0001.2,0015.15,0008.32,0007.23
2021-09-15 05:47:00,,0827.2,5.02,0.00,29.4,28.6,00.0,38.5,31.1,28.4,0001.6,0016.40,0008.38,0007.27
2021-09-15 05:48:00,,0827.2,4.99,0.00,29.4,28.6,00.0,38.5,31.1,28.5,0001.8,0016.43,0008.39,0007.27
2021-09-15 05:49:00,,0827.4,5.00,0.00,29.4,28.6,00.0,38.6,31.1,28.4,0001.6,0016.50,0008.45,0007.30
2021-09-15 05:50:00,,0827.4,5.00,0.00,29.4,28.7,00.0,38.6,31.1,28.4,0001.8,0016.89,0008.49,0007.31
2021-09-15 05:51:00,,0827.2,5.00,0.00,29.4,28.7,00.0,38.6,31.1,28.4,0001.8,0017.03,0008.53,0007.32
2021-09-15 05:52:00,,0827.2,5.01,0.00,29.4,28.7,00.0,38.6,31.1,28.4,0001.8,0017.04,0008.58,0007.33
2021-09-15 05:53:00,,0827.3,4.98,0.00,29.4,28.7,00.0,38.6,31.1,28.4,0002.0,0016.62,0008.65,0007.33
2021-09-15 05:54:00,,0827.3,5.01,0.00,29.4,28.7,00.0,38.6,31.1,28.4,0002.2,0016.64,0008.67,0007.34
2021-09-15 05:55:00,,0827.3,5.00,0.00,29.4,28.7,00.0,38.6,31.1,28.4,0002.3,0016.99,0008.70,0007.32
2021-09-15 05:56:00,,0827.3,5.00,0.00,29.4,28.7,00.0,38.6,31.1,28.4,0002.0,0017.08,0008.73,0007.34
2021-09-15 05:57:00,,0827.2,4.98,0.00,29.4,28.7,00.0,38.6,31.1,28.4,0001.8,0016.61,0008.76,0007.36
2021-09-15 05:58:00,,0827.3,5.01,0.00,29.4,28.7,00.0,38.6,31.2,28.4,0001.2,0016.27,0008.75,0007.36
2021-09-15 05:59:00,,0827.2,5.00,0.00,29.4,28.7,00.0,38.6,31.1,28.3,0001.1,0016.41,0008.73,0007.36
